FW9446 Weather Reports


Display with metric or nautical units.
time (UTC)temp
F
wind
direction
speed
MPH
gust
MPH
rain 1hr
in
rain 24hr
in
rain mn
in
humidity
%
barometer
mb
20260903000558 81 0 0.0 0.0 0.00 0.00 0.00 90 1017.2
20260903000103 82 0 0.0 0.0 0.00 0.00 0.00 90 1017.2
20260902235559 82 0 0.0 0.0 0.00 0.00 0.00 89 1017.1
20260902235058 82 0 0.0 0.0 0.00 0.00 0.00 89 1017.3
20260902234600 83 0 0.0 0.0 0.00 0.00 0.00 89 1017.2
20260902234058 83 0 0.0 0.0 0.00 0.00 0.00 88 1017.3
20260902233558 83 0 0.0 0.0 0.00 0.00 0.00 88 1017.2
20260902233104 84 0 0.0 0.0 0.00 0.00 0.00 87 1017.2
20260902232558 84 0 0.0 0.0 0.00 0.00 0.00 87 1017.2
20260902232058 84 0 0.0 0.0 0.00 0.00 0.00 86 1017.2
20260902231623 85 0 0.0 0.0 0.00 0.00 0.00 87 1017.2
20260902231059 85 0 0.0 0.0 0.00 0.00 0.00 86 1017.3
20260902230601 85 0 0.0 0.0 0.00 0.00 0.00 86 1017.2
20260902230105 85 0 0.0 0.0 0.00 0.00 0.00 85 1017.2
20260902225559 85 0 0.0 0.0 0.00 0.00 0.00 85 1017.2
20260902225059 86 0 0.0 0.0 0.00 0.00 0.00 85 1017.2
20260902224606 86 0 0.0 0.0 0.00 0.00 0.00 84 1017.3
20260902224102 86 0 0.0 0.0 0.00 0.00 0.00 84 1017.3
20260902223558 87 0 0.0 0.0 0.00 0.00 0.00 82 1017.3
20260902223111 87 0 0.0 0.0 0.00 0.00 0.00 82 1017.2
20260902222558 88 0 0.0 0.0 0.00 0.00 0.00 81 1017.2
20260902222058 88 0 0.0 0.0 0.00 0.00 0.00 80 1017.2
20260902221628 89 0 0.0 0.0 0.00 0.00 0.00 79 1017.2
20260902221102 89 0 0.0 0.0 0.00 0.00 0.00 78 1017.2
20260902220558 90 0 0.0 0.0 0.00 0.00 0.00 76 1017.4
20260902220106 91 0 0.0 0.0 0.00 0.00 0.00 75 1017.5
20260902215559 91 0 0.0 0.0 0.00 0.00 0.00 73 1017.4
20260902215058 92 0 0.0 0.0 0.00 0.00 0.00 74 1017.4
20260902214606 92 0 0.0 0.0 0.00 0.00 0.00 73 1017.4
20260902214100 93 0 0.0 0.0 0.00 0.00 0.00 72 1017.3
20260902213559 93 0 0.0 0.0 0.00 0.00 0.00 71 1017.4
20260902213107 93 0 0.0 0.0 0.00 0.00 0.00 71 1017.5
20260902212558 93 0 0.0 0.0 0.00 0.00 0.00 70 1017.5
20260902212057 94 0 0.0 0.0 0.00 0.00 0.00 68 1017.5
20260902211603 94 0 0.0 0.0 0.00 0.00 0.00 67 1017.5
20260902211058 95 0 0.0 0.0 0.00 0.00 0.00 66 1017.6
20260902210602 95 0 0.0 0.0 0.00 0.00 0.00 65 1017.5
20260902210112 95 0 0.0 0.0 0.00 0.00 0.00 64 1017.6
20260902205601 95 0 0.0 0.0 0.00 0.00 0.00 65 1017.6
20260902205058 96 0 0.0 0.0 0.00 0.00 0.00 61 1017.6
20260902204603 96 0 0.0 0.0 0.00 0.00 0.00 65 1017.6
20260902204058 96 0 0.0 0.0 0.00 0.00 0.00 62 1017.6
20260902203558 96 0 0.0 0.0 0.00 0.00 0.00 60 1017.7
20260902203100 96 0 0.0 0.0 0.00 0.00 0.00 60 1017.8
20260902202559 96 0 0.0 0.0 0.00 0.00 0.00 64 1017.9
20260902202058 96 0 0.0 0.0 0.00 0.00 0.00 66 1017.9
20260902201611 96 0 0.0 0.0 0.00 0.00 0.00 59 1017.9
20260902201059 96 0 0.0 0.0 0.00 0.00 0.00 57 1018.1
20260902200558 96 0 0.0 0.0 0.00 0.00 0.00 64 1018.0
20260902200105 96 0 0.0 0.0 0.00 0.00 0.00 67 1018.0
20260902195559 96 0 0.0 0.0 0.00 0.00 0.00 58 1018.2
20260902195057 96 0 0.0 0.0 0.00 0.00 0.00 60 1018.2
20260902194601 96 0 0.0 0.0 0.00 0.00 0.00 59 1018.2
20260902194058 96 0 0.0 0.0 0.00 0.00 0.00 58 1018.3
20260902193557 95 0 0.0 0.0 0.00 0.00 0.00 58 1018.3
20260902193109 95 0 0.0 0.0 0.00 0.00 0.00 62 1018.4
20260902192559 95 0 0.0 0.0 0.00 0.00 0.00 63 1018.4
20260902192058 95 0 0.0 0.0 0.00 0.00 0.00 66 1018.6
20260902191634 94 0 0.0 0.0 0.00 0.00 0.00 61 1018.7
20260902191100 95 0 0.0 0.0 0.00 0.00 0.00 69 1018.8
20260902190558 95 0 0.0 0.0 0.00 0.00 0.00 60 1018.8
20260902190105 95 0 0.0 0.0 0.00 0.00 0.00 67 1018.8
20260902185558 95 0 0.0 0.0 0.00 0.00 0.00 66 1019.0
20260902185102 95 0 0.0 0.0 0.00 0.00 0.00 58 1019.1
20260902184608 94 0 0.0 0.0 0.00 0.00 0.00 59 1019.1
20260902184058 94 0 0.0 0.0 0.00 0.00 0.00 60 1019.1
20260902183602 94 0 0.0 0.0 0.00 0.00 0.00 68 1019.2
20260902183134 93 0 0.0 0.0 0.00 0.00 0.00 61 1019.2
20260902182558 93 0 0.0 0.0 0.00 0.00 0.00 62 1019.2
20260902182058 93 0 0.0 0.0 0.00 0.00 0.00 68 1019.2
20260902181613 92 0 0.0 0.0 0.00 0.00 0.00 63 1019.3
20260902181100 93 0 0.0 0.0 0.00 0.00 0.00 67 1019.3
20260902180557 93 0 0.0 0.0 0.00 0.00 0.00 68 1019.3
20260902180105 93 0 0.0 0.0 0.00 0.00 0.00 65 1019.4
20260902175557 93 0 0.0 0.0 0.00 0.00 0.00 67 1019.5
20260902175058 92 0 0.0 0.0 0.00 0.00 0.00 63 1019.6
20260902174602 92 0 0.0 0.0 0.00 0.00 0.00 69 1019.7
20260902174057 92 0 0.0 0.0 0.00 0.00 0.00 64 1019.8
20260902173558 93 0 0.0 0.0 0.00 0.00 0.00 68 1019.9
20260902173118 93 0 0.0 0.0 0.00 0.00 0.00 65 1019.9
20260902172558 92 0 0.0 0.0 0.00 0.00 0.00 63 1020.0
20260902172058 92 0 0.0 0.0 0.00 0.00 0.00 68 1020.1
20260902171618 92 0 0.0 0.0 0.00 0.00 0.00 65 1020.2
20260902171058 91 0 0.0 0.0 0.00 0.00 0.00 70 1020.2
20260902170557 91 0 0.0 0.0 0.00 0.00 0.00 68 1020.2
20260902170105 91 0 0.0 0.0 0.00 0.00 0.00 70 1020.3
20260902165558 91 0 0.0 0.0 0.00 0.00 0.00 67 1020.5
20260902165058 90 0 0.0 0.0 0.00 0.00 0.00 69 1020.5
20260902164615 90 0 0.0 0.0 0.00 0.00 0.00 71 1020.6
20260902164058 90 0 0.0 0.0 0.00 0.00 0.00 70 1020.7
20260902163558 89 0 0.0 0.0 0.00 0.00 0.00 70 1020.9
20260902163105 90 0 0.0 0.0 0.00 0.00 0.00 75 1020.9
20260902162557 89 0 0.0 0.0 0.00 0.00 0.00 72 1020.8
20260902162057 89 0 0.0 0.0 0.00 0.00 0.00 73 1020.9
20260902161605 89 0 0.0 0.0 0.00 0.00 0.00 72 1021.1
20260902161059 89 0 0.0 0.0 0.00 0.00 0.00 78 1021.0
20260902160558 88 0 0.0 0.0 0.00 0.00 0.00 76 1021.0
20260902160119 88 0 0.0 0.0 0.00 0.00 0.00 78 1021.0
20260902155558 87 0 0.0 0.0 0.00 0.00 0.00 75 1021.1
20260902155057 87 0 0.0 0.0 0.00 0.00 0.00 81 1021.2
20260902154607 87 0 0.0 0.0 0.00 0.00 0.00 79 1021.2
20260902154103 87 0 0.0 0.0 0.00 0.00 0.00 80 1021.3
20260902153558 86 0 0.0 0.0 0.00 0.00 0.00 81 1021.2
20260902153119 86 0 0.0 0.0 0.00 0.00 0.00 81 1021.3
20260902152558 85 0 0.0 0.0 0.00 0.00 0.00 80 1021.2
20260902152059 85 0 0.0 0.0 0.00 0.00 0.00 83 1021.3
20260902151608 84 0 0.0 0.0 0.00 0.00 0.00 84 1021.3
20260902151059 83 0 0.0 0.0 0.00 0.00 0.00 84 1021.3
20260902150558 82 0 0.0 0.0 0.00 0.00 0.00 84 1021.3
20260902145558 80 0 0.0 0.0 0.00 0.00 0.00 89 1021.2
20260902145057 80 0 0.0 0.0 0.00 0.00 0.00 91 1021.1
20260902144604 80 0 0.0 0.0 0.00 0.00 0.00 92 1021.3
20260902144058 79 0 0.0 0.0 0.00 0.00 0.00 93 1021.2
20260902143558 78 0 0.0 0.0 0.00 0.00 0.00 94 1021.2
20260902143102 78 0 0.0 0.0 0.00 0.00 0.00 94 1021.3
20260902142558 78 0 0.0 0.0 0.00 0.00 0.00 95 1021.3
20260902142059 78 0 0.0 0.0 0.00 0.00 0.00 96 1021.3
20260902141603 77 0 0.0 0.0 0.00 0.00 0.00 96 1021.1
20260902141058 77 0 0.0 0.0 0.00 0.00 0.00 98 1021.1
20260902140558 76 0 0.0 0.0 0.00 0.00 0.00 99 1021.0
20260902140109 76 0 0.0 0.0 0.00 0.00 0.00 99 1021.0
20260902135558 75 0 0.0 0.0 0.00 0.00 0.00 99 1021.2
20260902135058 75 0 0.0 0.0 0.00 0.00 0.00 100 1021.1
20260902134606 74 0 0.0 0.0 0.00 0.00 0.00 100 1021.1
20260902134057 74 0 0.0 0.0 0.00 0.00 0.00 100 1021.0
20260902133558 74 0 0.0 0.0 0.00 0.00 0.00 100 1021.0
20260902133108 73 0 0.0 0.0 0.00 0.00 0.00 100 1021.1
20260902132558 73 0 0.0 0.0 0.00 0.00 0.00 100 1021.0
20260902132057 73 0 0.0 0.0 0.00 0.00 0.00 100 1021.1
20260902131622 73 0 0.0 0.0 0.00 0.00 0.00 100 1021.0
20260902131058 72 0 0.0 0.0 0.00 0.00 0.00 100 1021.1
20260902130556 72 0 0.0 0.0 0.00 0.00 0.00 100 1021.0
20260902130106 72 0 0.0 0.0 0.00 0.00 0.00 99 1020.9
20260902125558 71 0 0.0 0.0 0.00 0.00 0.00 99 1021.0
20260902125101 71 0 0.0 0.0 0.00 0.00 0.00 100 1020.8
20260902124601 71 0 0.0 0.0 0.00 0.00 0.00 99 1020.9
20260902124100 70 0 0.0 0.0 0.00 0.00 0.00 99 1020.9
20260902123557 70 0 0.0 0.0 0.00 0.00 0.00 99 1021.0
20260902123107 70 0 0.0 0.0 0.00 0.00 0.00 99 1021.0
20260902122601 70 0 0.0 0.0 0.00 0.00 0.00 99 1020.9
20260902122057 70 0 0.0 0.0 0.00 0.00 0.00 99 1020.8
20260902121608 70 0 0.0 0.0 0.00 0.00 0.00 99 1020.8
20260902121058 70 0 0.0 0.0 0.00 0.00 0.00 99 1020.6
20260902120559 70 0 0.0 0.0 0.00 0.00 0.00 99 1020.6
20260902120112 70 0 0.0 0.0 0.00 0.00 0.00 99 1020.5
20260902115558 70 0 0.0 0.0 0.00 0.00 0.00 99 1020.5
20260902115058 70 0 0.0 0.0 0.00 0.00 0.00 99 1020.5
20260902114608 69 0 0.0 0.0 0.00 0.00 0.00 99 1020.4
20260902114058 69 0 0.0 0.0 0.00 0.00 0.00 99 1020.3
20260902113557 69 0 0.0 0.0 0.00 0.00 0.00 99 1020.2
20260902113106 69 0 0.0 0.0 0.00 0.00 0.00 99 1020.1
20260902112558 69 0 0.0 0.0 0.00 0.00 0.00 99 1020.2
20260902112058 69 0 0.0 0.0 0.00 0.00 0.00 99 1020.2
20260902111610 69 0 0.0 0.0 0.00 0.00 0.00 99 1020.1
20260902111057 69 0 0.0 0.0 0.00 0.00 0.00 99 1020.2
20260902110558 70 0 0.0 0.0 0.00 0.00 0.00 99 1020.1
20260902110106 70 0 0.0 0.0 0.00 0.00 0.00 99 1020.0
20260902105558 69 0 0.0 0.0 0.00 0.00 0.00 99 1020.0
20260902105059 70 0 0.0 0.0 0.00 0.00 0.00 99 1019.9
20260902104614 70 0 0.0 0.0 0.00 0.00 0.00 99 1019.9
20260902104059 70 0 0.0 0.0 0.00 0.00 0.00 99 1019.8
20260902103557 70 0 0.0 0.0 0.00 0.00 0.00 99 1019.8
20260902103106 70 0 0.0 0.0 0.00 0.00 0.00 98 1019.8
20260902102558 70 0 0.0 0.0 0.00 0.00 0.00 98 1019.8
20260902102058 70 0 0.0 0.0 0.00 0.00 0.00 98 1019.8
20260902101607 70 0 0.0 0.0 0.00 0.00 0.00 98 1019.7
20260902101057 70 0 0.0 0.0 0.00 0.00 0.00 98 1019.6
20260902100557 70 0 0.0 0.0 0.00 0.00 0.00 98 1019.6
20260902100101 70 0 0.0 0.0 0.00 0.00 0.00 98 1019.5
20260902095557 70 0 0.0 0.0 0.00 0.00 0.00 98 1019.5
20260902095059 70 0 0.0 0.0 0.00 0.00 0.00 98 1019.6
20260902094603 70 0 0.0 0.0 0.00 0.00 0.00 98 1019.6
20260902094057 70 0 0.0 0.0 0.00 0.00 0.00 98 1019.4
20260902093600 70 0 0.0 0.0 0.00 0.00 0.00 98 1019.4
20260902093107 70 0 0.0 0.0 0.00 0.00 0.00 98 1019.4
20260902092557 70 0 0.0 0.0 0.00 0.00 0.00 98 1019.4
20260902092100 70 0 0.0 0.0 0.00 0.00 0.00 98 1019.4
20260902091601 70 0 0.0 0.0 0.00 0.00 0.00 98 1019.3
20260902091058 70 0 0.0 0.0 0.00 0.00 0.00 98 1019.4
20260902090558 70 0 0.0 0.0 0.00 0.00 0.00 98 1019.2
20260902090120 70 0 0.0 0.0 0.00 0.00 0.00 98 1019.1
20260902085558 70 0 0.0 0.0 0.00 0.00 0.00 98 1019.2
20260902085057 70 0 0.0 0.0 0.00 0.00 0.00 98 1019.2
20260902084606 70 0 0.0 0.0 0.00 0.00 0.00 98 1019.1
20260902084057 70 0 0.0 0.0 0.00 0.00 0.00 98 1019.0
20260902083559 71 0 0.0 0.0 0.00 0.00 0.00 98 1019.1
20260902083117 71 0 0.0 0.0 0.00 0.00 0.00 98 1018.9
20260902082600 71 0 0.0 0.0 0.00 0.00 0.00 98 1018.9
20260902082058 71 0 0.0 0.0 0.00 0.00 0.00 98 1018.9
20260902081605 71 0 0.0 0.0 0.00 0.00 0.00 98 1018.8
20260902081057 71 0 0.0 0.0 0.00 0.00 0.00 98 1018.9
20260902080558 71 0 0.0 0.0 0.00 0.00 0.00 98 1018.7
20260902080108 71 0 0.0 0.0 0.00 0.00 0.00 98 1018.7
20260902075557 71 0 0.0 0.0 0.00 0.00 0.00 98 1018.8
20260902075102 71 0 0.0 0.0 0.00 0.00 0.00 98 1018.7
20260902074614 71 0 0.0 0.0 0.00 0.00 0.00 98 1018.8
20260902074058 71 0 0.0 0.0 0.00 0.00 0.00 98 1018.8
20260902073600 71 0 0.0 0.0 0.00 0.00 0.00 98 1018.8
20260902073119 71 0 0.0 0.0 0.00 0.00 0.00 98 1018.9
20260902072556 71 0 0.0 0.0 0.00 0.00 0.00 98 1018.8
20260902072103 71 0 0.0 0.0 0.00 0.00 0.00 98 1018.9
20260902071617 71 0 0.0 0.0 0.00 0.00 0.00 98 1018.9
20260902071057 71 0 0.0 0.0 0.00 0.00 0.00 98 1019.0
20260902070558 71 0 0.0 0.0 0.00 0.00 0.00 98 1019.0
20260902070106 71 0 0.0 0.0 0.00 0.00 0.00 98 1019.1
20260902065557 71 0 0.0 0.0 0.00 0.00 0.00 98 1019.0
20260902065058 71 0 0.0 0.0 0.00 0.00 0.00 98 1019.0
20260902064603 71 0 0.0 0.0 0.00 0.00 0.00 98 1018.9
20260902064058 71 0 0.0 0.0 0.00 0.00 0.00 98 1019.0
20260902063557 71 0 0.0 0.0 0.00 0.00 0.00 98 1019.1
20260902063102 72 0 0.0 0.0 0.00 0.00 0.00 98 1019.1
20260902062558 72 0 0.0 0.0 0.00 0.00 0.00 97 1018.9
20260902062102 72 0 0.0 0.0 0.00 0.00 0.00 97 1019.0
20260902061101 72 0 0.0 0.0 0.00 0.00 0.00 97 1019.0
20260902060558 72 0 0.0 0.0 0.00 0.00 0.00 97 1019.1
20260902060109 72 0 0.0 0.0 0.00 0.00 0.00 97 1019.0
20260902055559 72 0 0.0 0.0 0.00 0.00 0.00 97 1019.2
20260902055057 72 0 0.0 0.0 0.00 0.00 0.00 97 1019.1
20260902054613 72 0 0.0 0.0 0.00 0.00 0.00 97 1019.2
20260902054057 72 0 0.0 0.0 0.00 0.00 0.00 97 1019.2
20260902053557 72 0 0.0 0.0 0.00 0.00 0.00 97 1019.1
20260902053109 72 0 0.0 0.0 0.00 0.00 0.00 97 1019.1
20260902052557 72 0 0.0 0.0 0.00 0.00 0.00 97 1019.2
20260902052057 72 0 0.0 0.0 0.00 0.00 0.00 97 1019.2
20260902051604 72 0 0.0 0.0 0.00 0.00 0.00 97 1019.2
20260902051057 73 0 0.0 0.0 0.00 0.00 0.00 97 1019.2
20260902050557 73 0 0.0 0.0 0.00 0.00 0.00 97 1019.3
20260902050105 73 0 0.0 0.0 0.00 0.00 0.00 97 1019.2
20260902045559 73 0 0.0 0.0 0.00 0.00 0.00 97 1019.2
20260902045101 73 0 0.0 0.0 0.00 0.00 0.00 97 1019.2
20260902044607 73 0 0.0 0.0 0.00 0.00 0.00 97 1019.1
20260902044058 73 0 0.0 0.0 0.00 0.00 0.00 97 1019.2
20260902043557 73 0 0.0 0.0 0.00 0.00 0.00 97 1019.2
20260902043109 73 0 0.0 0.0 0.00 0.00 0.00 97 1019.1
20260902042557 73 0 0.0 0.0 0.00 0.00 0.00 97 1019.2
20260902042057 73 0 0.0 0.0 0.00 0.00 0.00 97 1019.1
20260902041604 73 0 0.0 0.0 0.00 0.00 0.00 96 1019.2
20260902041056 73 0 0.0 0.0 0.00 0.00 0.00 97 1019.2
20260902040600 73 0 0.0 0.0 0.00 0.00 0.00 97 1019.2
20260902040109 73 0 0.0 0.0 0.00 0.00 0.00 97 1019.2
20260902035557 73 0 0.0 0.0 0.00 0.00 0.00 96 1019.2
20260902035059 73 0 0.0 0.0 0.00 0.00 0.00 96 1019.3
20260902034613 73 0 0.0 0.0 0.00 0.00 0.00 96 1019.1
20260902034056 74 0 0.0 0.0 0.00 0.00 0.00 96 1019.2
20260902033600 74 0 0.0 0.0 0.00 0.00 0.00 96 1019.2
20260902033106 74 0 0.0 0.0 0.00 0.00 0.00 96 1019.1
20260902032557 74 0 0.0 0.0 0.00 0.00 0.00 96 1019.2
20260902032057 74 0 0.0 0.0 0.00 0.00 0.00 96 1019.1
20260902031608 74 0 0.0 0.0 0.00 0.00 0.00 96 1019.2
20260902031100 74 0 0.0 0.0 0.00 0.00 0.00 96 1019.2
20260902030556 74 0 0.0 0.0 0.00 0.00 0.00 95 1019.2
20260902025557 74 0 0.0 0.0 0.00 0.00 0.00 95 1019.1
20260902025057 74 0 0.0 0.0 0.00 0.00 0.00 95 1019.2
20260902024605 74 0 0.0 0.0 0.00 0.00 0.00 95 1019.1
20260902024057 75 0 0.0 0.0 0.00 0.00 0.00 95 1019.1
20260902023557 75 0 0.0 0.0 0.00 0.00 0.00 95 1019.2
20260902023112 75 0 0.0 0.0 0.00 0.00 0.00 95 1019.2
20260902022557 75 0 0.0 0.0 0.00 0.00 0.00 95 1019.2
20260902022057 75 0 0.0 0.0 0.00 0.00 0.00 95 1019.1
20260902021605 75 0 0.0 0.0 0.00 0.00 0.00 94 1018.9
20260902021057 75 0 0.0 0.0 0.00 0.00 0.00 94 1019.0
20260902020600 75 0 0.0 0.0 0.00 0.00 0.00 94 1019.0
20260902020104 75 0 0.0 0.0 0.00 0.00 0.00 94 1019.1
20260902015557 76 0 0.0 0.0 0.00 0.00 0.00 94 1019.2
20260902015056 76 0 0.0 0.0 0.00 0.00 0.00 93 1018.9
20260902014606 76 0 0.0 0.0 0.00 0.00 0.00 94 1019.0
20260902014057 76 0 0.0 0.0 0.00 0.00 0.00 93 1018.9
20260902013557 76 0 0.0 0.0 0.00 0.00 0.00 93 1018.8
20260902013107 76 0 0.0 0.0 0.00 0.00 0.00 93 1018.7
20260902012600 77 0 0.0 0.0 0.00 0.00 0.00 93 1018.7
20260902012057 77 0 0.0 0.0 0.00 0.00 0.00 93 1018.6
20260902011608 77 0 0.0 0.0 0.00 0.00 0.00 93 1018.6
20260902011057 77 0 0.0 0.0 0.00 0.00 0.00 93 1018.6
20260902010557 77 0 0.0 0.0 0.00 0.00 0.00 92 1018.6
20260902010107 77 0 0.0 0.0 0.00 0.00 0.00 92 1018.6
20260902005556 78 0 0.0 0.0 0.00 0.00 0.00 92 1018.6
20260902005058 78 0 0.0 0.0 0.00 0.00 0.00 92 1018.5
20260902004610 78 0 0.0 0.0 0.00 0.00 0.00 91 1018.4
20260902004057 78 0 0.0 0.0 0.00 0.00 0.00 91 1018.6
20260902003557 79 0 0.0 0.0 0.00 0.00 0.00 91 1018.5
20260902003101 79 0 0.0 0.0 0.00 0.00 0.00 90 1018.5
20260902002600 79 0 0.0 0.0 0.00 0.00 0.00 90 1018.5
20260902002057 79 0 0.0 0.0 0.00 0.00 0.00 90 1018.5
20260902001621 80 0 0.0 0.0 0.00 0.00 0.00 90 1018.4
20260902001059 80 0 0.0 0.0 0.00 0.00 0.00 89 1018.5